Location: Firdgum
(53.2488°N, 5.5615°E)
Time: 06:59:15
(UTC+00:00)

CZ-4B DEB - Pass Details

Date: 08 December 2019
Orbit: 841 x 861 km, 99.1° (Epoch: 26 January)

Event Time Altitude Azimuth Distance (km) Brightness Sun altitude
Rises 05:16:36 0° 16° (NNE) 3,428 7.4 -19.9°
Reaches altitude 10° 05:18:58 10° 16° (NNE) 2,491 6.7 -19.5°
Maximum altitude 05:24:31 89° 286° (WNW) 862 4.2 -18.7°
Drops below altitude 10° 05:30:03 10° 199° (SSW) 2,487 6.6 -17.9°
Sets 05:32:25 0° 199° (SSW) 3,422 7.3 -17.6°
